{"data":{"norad_id":65612,"epoch":"2026-09-20T22:00:03.000096Z","epoch_age_seconds":75919,"freshness":"FRESH","line1":"1 65612U 25207W   26263.91670139 -.00002080  00000+0 -62180-4 0  9993","line2":"2 65612  97.2860 326.4426 0001677  87.0085 208.4826 15.33408086  5744","mean_motion":15.33408086,"eccentricity":0.0001677,"inclination_deg":97.286,"raan_deg":326.4426,"arg_perigee_deg":87.0085,"mean_anomaly_deg":208.4826,"bstar":-6.218e-5,"rev_number":574,"period_min":93.90846527726,"perigee_km":464.50530319008,"apogee_km":466.80071035835,"semimajor_km":6843.7900067742,"source":"CELESTRAK","updated_at":"2026-09-21T09:00:35.657190Z"}}